When you browse on this site, cookies collect data to enhance your experience and personalize the content and advertising you see.
Visit our Privacy Policy to learn more. By continuing to use the site, you agree to this use of cookies and data.
  • In Hungary
  • List of Countries
  • For 7 days
  • Water Temperature
  • Weather Map
  • News
  • Weather Widgets
  • user-avatar
    Login

    Hourly Weather Henoh

    Today, 18 October, Friday

    Time Temperature Precipitation Wind Pressure Humidity
    00:00 +7°C° 0 mm 1 mps 603 mmHg 61%
    01:00 +7°C° 0 mm 1 mps 603 mmHg 61%
    02:00 +6°C° 0 mm 1 mps 603 mmHg 62%
    03:00 +6°C° 0 mm 1 mps 603 mmHg 62%
    04:00 +6°C° 0 mm 1 mps 603 mmHg 62%
    05:00 +6°C° 0 mm 1 mps 603 mmHg 61%
    06:00 +6°C° 0 mm 1 mps 603 mmHg 60%
    07:00 +9°C° 0 mm 1 mps 604 mmHg 52%
    08:00 +12°C° 0 mm 1 mps 605 mmHg 44%
    09:00 +13°C° 0 mm 0 mps 606 mmHg 36%
    10:00 +16°C° 0 mm 1 mps 606 mmHg 34%
    11:00 +18°C° 0 mm 1 mps 606 mmHg 31%
    12:00 +19°C° 0 mm 1 mps 607 mmHg 29%
    13:00 +18°C° 0 mm 1 mps 606 mmHg 30%
    14:00 +18°C° 0 mm 1 mps 606 mmHg 32%
    15:00 +18°C° 0 mm 1 mps 605 mmHg 34%
    16:00 +15°C° 0 mm 1 mps 605 mmHg 41%
    17:00 +12°C° 0 mm 1 mps 604 mmHg 48%
    18:00 +10°C° 0 mm 1 mps 603 mmHg 55%
    19:00 +10°C° 0 mm 1 mps 603 mmHg 53%
    20:00 +9°C° 0 mm 1 mps 603 mmHg 52%
    21:00 +9°C° 0 mm 1 mps 603 mmHg 50%
    22:00 +9°C° 0 mm 1 mps 602 mmHg 50%
    23:00 +8°C° 0 mm 1 mps 602 mmHg 50%

    Tomorrow, 19 October, Saturday

    Time Temperature Precipitation Wind Pressure Humidity
    00:00 +8°C° 0 mm 1 mps 602 mmHg 49%
    01:00 +8°C° 0 mm 1 mps 602 mmHg 50%
    02:00 +8°C° 0 mm 1 mps 602 mmHg 50%
    03:00 +8°C° 0 mm 1 mps 602 mmHg 51%
    04:00 +7°C° 0 mm 1 mps 602 mmHg 51%
    05:00 +7°C° 0 mm 1 mps 602 mmHg 52%
    06:00 +7°C° 0 mm 1 mps 602 mmHg 52%
    07:00 +10°C° 0 mm 1 mps 603 mmHg 48%
    08:00 +11°C° 0 mm 0 mps 604 mmHg 44%
    09:00 +13°C° 0 mm 0 mps 606 mmHg 40%
    10:00 +15°C° 0 mm 1 mps 606 mmHg 40%
    11:00 +16°C° 0 mm 1 mps 606 mmHg 39%
    12:00 +18°C° 0 mm 1 mps 606 mmHg 38%
    13:00 +16°C° 0 mm 1 mps 606 mmHg 41%
    14:00 +16°C° 0 mm 1 mps 605 mmHg 44%
    15:00 +15°C° 0 mm 1 mps 605 mmHg 47%
    16:00 +14°C° 0 mm 1 mps 605 mmHg 54%
    17:00 +12°C° 0 mm 1 mps 604 mmHg 61%
    18:00 +10°C° 0 mm 1 mps 604 mmHg 69%
    19:00 +9°C° 0 mm 0 mps 604 mmHg 71%
    20:00 +8°C° 0 mm 0 mps 604 mmHg 73%
    21:00 +8°C° 0 mm 0 mps 604 mmHg 74%
    22:00 +7°C° 0 mm 0 mps 604 mmHg 77%
    23:00 +7°C° 0 mm 0 mps 604 mmHg 79%

    Day after tomorrow, 20 October, Sunday

    Time Temperature Precipitation Wind Pressure Humidity
    00:00 +6°C° 0 mm 0 mps 603 mmHg 81%
    01:00 +6°C° 0 mm 0 mps 603 mmHg 81%
    02:00 +7°C° 0 mm 1 mps 603 mmHg 82%
    03:00 +7°C° 0 mm 1 mps 603 mmHg 83%
    04:00 +7°C° 0 mm 1 mps 603 mmHg 82%
    05:00 +6°C° 0 mm 1 mps 603 mmHg 82%
    06:00 +6°C° 0 mm 1 mps 604 mmHg 81%
    07:00 +8°C° 0 mm 1 mps 605 mmHg 73%
    08:00 +10°C° 0 mm 0 mps 606 mmHg 65%
    09:00 +12°C° 0 mm 0 mps 607 mmHg 57%
    10:00 +14°C° 0 mm 1 mps 607 mmHg 56%
    11:00 +14°C° 0 mm 1 mps 607 mmHg 54%
    12:00 +15°C° 0 mm 2 mps 607 mmHg 52%
    13:00 +15°C° 0.3 mm 1 mps 607 mmHg 55%
    14:00 +14°C° 0.3 mm 1 mps 607 mmHg 59%
    15:00 +14°C° 0.3 mm 1 mps 606 mmHg 63%
    16:00 +12°C° 0.3 mm 1 mps 606 mmHg 71%
    17:00 +11°C° 0.3 mm 1 mps 605 mmHg 79%
    18:00 +8°C° 0.3 mm 0 mps 605 mmHg 87%
    19:00 +8°C° 0 mm 0 mps 605 mmHg 88%
    20:00 +7°C° 0 mm 0 mps 605 mmHg 89%
    21:00 +7°C° 0 mm 0 mps 605 mmHg 89%
    22:00 +7°C° 0 mm 0 mps 605 mmHg 90%
    23:00 +7°C° 0 mm 0 mps 605 mmHg 91%

    21 October, Monday

    Time Temperature Precipitation Wind Pressure Humidity
    00:00 +7°C° 0 mm 1 mps 605 mmHg 92%
    01:00 +7°C° 0 mm 1 mps 605 mmHg 92%
    02:00 +7°C° 0 mm 1 mps 605 mmHg 93%
    03:00 +7°C° 0 mm 1 mps 605 mmHg 93%
    04:00 +7°C° 0 mm 1 mps 604 mmHg 92%
    05:00 +7°C° 0 mm 1 mps 604 mmHg 91%
    06:00 +6°C° 0 mm 1 mps 604 mmHg 90%
    07:00 +8°C° 0 mm 1 mps 605 mmHg 83%
    08:00 +10°C° 0 mm 1 mps 606 mmHg 76%
    09:00 +11°C° 0 mm 1 mps 607 mmHg 69%
    10:00 +12°C° 0 mm 1 mps 607 mmHg 67%
    11:00 +13°C° 0 mm 1 mps 607 mmHg 64%
    12:00 +14°C° 0 mm 2 mps 607 mmHg 62%
    13:00 +14°C° 0.1 mm 2 mps 607 mmHg 65%
    14:00 +13°C° 0.1 mm 2 mps 607 mmHg 67%
    15:00 +13°C° 0.1 mm 2 mps 606 mmHg 70%
    16:00 +12°C° 0.1 mm 1 mps 606 mmHg 77%
    17:00 +10°C° 0.1 mm 1 mps 605 mmHg 83%
    18:00 +9°C° 0.1 mm 1 mps 605 mmHg 90%
    19:00 +8°C° 0 mm 1 mps 605 mmHg 90%
    20:00 +8°C° 0 mm 1 mps 605 mmHg 91%
    21:00 +8°C° 0 mm 1 mps 604 mmHg 91%
    22:00 +7°C° 0 mm 1 mps 604 mmHg 92%
    23:00 +7°C° 0 mm 1 mps 604 mmHg 92%

    22 October, Tuesday

    Time Temperature Precipitation Wind Pressure Humidity
    00:00 +7°C° 0 mm 1 mps 604 mmHg 92%
    01:00 +7°C° 0 mm 1 mps 604 mmHg 91%
    02:00 +7°C° 0 mm 1 mps 604 mmHg 90%
    03:00 +7°C° 0 mm 1 mps 604 mmHg 89%
    04:00 +6°C° 0 mm 1 mps 603 mmHg 88%
    05:00 +6°C° 0 mm 1 mps 603 mmHg 88%
    06:00 +5°C° 0 mm 1 mps 602 mmHg 88%
    07:00 +7°C° 0 mm 1 mps 603 mmHg 81%
    08:00 +9°C° 0 mm 1 mps 604 mmHg 73%
    09:00 +11°C° 0 mm 1 mps 605 mmHg 66%
    10:00 +12°C° 0 mm 1 mps 605 mmHg 61%
    11:00 +13°C° 0 mm 2 mps 606 mmHg 57%
    12:00 +14°C° 0 mm 2 mps 606 mmHg 53%
    13:00 +14°C° 0 mm 2 mps 606 mmHg 55%
    14:00 +14°C° 0 mm 2 mps 605 mmHg 57%
    15:00 +14°C° 0 mm 2 mps 605 mmHg 59%
    16:00 +12°C° 0 mm 1 mps 604 mmHg 68%
    17:00 +10°C° 0 mm 1 mps 603 mmHg 77%
    18:00 +8°C° 0 mm 1 mps 603 mmHg 87%
    19:00 +8°C° 0 mm 1 mps 602 mmHg 87%
    20:00 +7°C° 0 mm 1 mps 602 mmHg 88%
    21:00 +6°C° 0 mm 0 mps 602 mmHg 89%
    22:00 +6°C° 0 mm 0 mps 602 mmHg 88%
    23:00 +5°C° 0 mm 0 mps 602 mmHg 87%

    23 October, Wednesday

    Time Temperature Precipitation Wind Pressure Humidity
    00:00 +5°C° 0 mm 0 mps 602 mmHg 86%
    01:00 +5°C° 0 mm 0 mps 602 mmHg 85%
    02:00 +6°C° 0 mm 1 mps 602 mmHg 83%
    03:00 +6°C° 0 mm 1 mps 602 mmHg 82%
    04:00 +6°C° 0 mm 1 mps 602 mmHg 80%
    05:00 +6°C° 0 mm 1 mps 602 mmHg 79%
    06:00 +6°C° 0 mm 1 mps 601 mmHg 78%
    07:00 +8°C° 0 mm 1 mps 603 mmHg 71%
    08:00 +9°C° 0 mm 0 mps 604 mmHg 63%
    09:00 +11°C° 0 mm 0 mps 605 mmHg 56%
    10:00 +13°C° 0 mm 1 mps 605 mmHg 53%
    11:00 +14°C° 0 mm 1 mps 606 mmHg 51%
    12:00 +15°C° 0 mm 1 mps 606 mmHg 49%
    13:00 +14°C° 0.1 mm 1 mps 606 mmHg 52%
    14:00 +14°C° 0.1 mm 1 mps 606 mmHg 55%
    15:00 +14°C° 0.1 mm 1 mps 605 mmHg 58%
    16:00 +12°C° 0.1 mm 1 mps 605 mmHg 67%
    17:00 +10°C° 0.1 mm 1 mps 604 mmHg 76%
    18:00 +7°C° 0.1 mm 0 mps 604 mmHg 85%
    19:00 +7°C° 0 mm 0 mps 604 mmHg 86%
    20:00 +7°C° 0 mm 1 mps 604 mmHg 86%
    21:00 +7°C° 0 mm 1 mps 604 mmHg 86%
    22:00 +6°C° 0 mm 1 mps 604 mmHg 86%
    23:00 +6°C° 0 mm 1 mps 604 mmHg 85%
    Show more